Probability
0 0 0 0 0 0 0 0 0 0 0 0 0 0 0 0 0 0 0 0 0 0 0 0 0 0 0 0 0 0 0 0 0 0 0 0 0 0 0 0 0 0 0 0
0 0 0 0 0 0 0 0 0 0 0 0 0 0 0 0 0 0 0 0 0 0 0 0 0 0 0 0 0 0 0 0 0 0 0 0 0 0 0 0 0 0 0 0
0 0 0 0 0 0 0 0 0 0 0 0 0 0 0 0 0 0 0 0 0 0 0 0 0 0 0 0 0 0 0 0 0 0 0 0 0 0 0 0 0 0 0 0
0 0 0 0 0 0 0 0 0 0 0 0 0 0 0 0 0 0 0 0 0 0 0 0 0 0 0 0 0 0 0 0 0 0 0 0 0 0 0 0 0 0 0 0
0 0 0 0 0 0 0 0 0 0 0 0 0 0 0 0 0 0 0 0 0 0 0 0 0 0 0 0 0 0 0 0 0 0 0 0 0 0 0 0 0 0 0 0
0 0 0 0 0 0 0 0 0 0 0 0 0 0 0 0 0 0 0 0 0 0 0 0 0 0 0 0 0 0 0 0 0 0 0 0 0 0 0 0 0 0 0 0
0 0 0 0 0 0 0 0 0 0 0 0 0 0 0 0 0 0 0 0 0 0 0 0 0 0 0 0 0 0 0 0 0 0 0 0 0 0 0 0 0 0 0 0
0 0 0 0 0 0 0 0 0 0 0 0 0 0 0 0 0 0 0 0 0 0 0 0 0 0 0 0 0 0 0 0 0 0 0 0 0 0 0 0 0 0 0 0
0 0 0 0 0 0 0 0 0 0 0 0 0 0 0 0 0 0 0 0 0 0 0 0 0 0 0 0 0 0 0 0 0 0 0 0 0 0 0 0 0 0 0 0
0 0 0 0 0 0 0 0 0 0 0 0 0 0 0 0 0 0 0 0 0 0 0 0 0 0 0 0 0 0 0 0 0 0 0 0 0 0 0 0 0 0 0 0
0 0 0 0 0 0 0 0 0 0 0 0 0 0 0 0 0 0 0 0 0 0 0 0 0 0 0 0 0 0 0 0 0 0 0 0 0 0 0 0 0 0 0 0
0 0 0 0 0 0 0 0 0 0 0 0 0 0 0 0 0 0 0 0 0 0 0 0 0 0 0 0 0 0 0 0 0 0 0 0 0 0 0 0 0 0 0 0
0 0 0 0 0 0 0 0 0 0 0 0 0 0 0 0 0 0 0 0 0 0 0 0 0 0 0 0 0 0 0 0 0 0 0 0 0 0 0 0 0 0 0 0
0 0 0 0 0 0 0 0 0 0 0 0 0 0 0 0 0 0 0 0 0 0 0 0 0 0 0 0 0 0 0 0 0 0 0 0 0 0 0 0 0 0 0 0
0 0 0 0 0 0 0 0 0 0 0 0 0 0 0 0 0 0 0 0 0 0 0 0 0 0 0 0 0 0 0 0 0 0 0 0 0 0 0 0 0 0 0 0
0 0 0 0 0 0 0 0 0 0 0 0 0 0 0 0 0 0 0 0 0 0 0 0 0 0 0 0 0 0 0 0 0 0 0 0 0 0 0 0 0 0 0 0
0 0 0 0 0 0 0 0 0 0 0 0 0 0 0 0 0 0 0 0 0 0 0 0 0 0 0 0 0 0 0 0 0 0 0 0 0 0 0 0 0 0 0 0
0 0 0 0 0 0 0 0 0 0 0 0 0 0 0 0 0 0 0 0 0 0 0 0 0 0 0 0 0 0 0 0 0 0 0 0 0 0 0 0 0 0 0 0
0 0 0 0 0 0 0 0 0 0 0 0 0 0 0 0 0 0 0 0 0 0 0 0 0 0 0 0 0 0 0 0 0 0 0 0 0 0 0 0 0 0 0 0
0 0 0 0 0 0 0 0 0 0 0 0 0 0 0 0 0 0 0 0 0 0 0 0 0 0 0 0 0 0 0 0 0 0 0 0 0 0 0 0 0 0 0 0
0 0 0 0 0 0 0 0 0 0 0 0 0 0 0 0 0 0 0 0 0 0 0 0 0 0 0 0 0 0 0 0 0 0 0 0 0 0 0 0 0 0 0 0
0 0 0 0 0 0 0 0 0 0 0 0 0 0 0 0 0 0 0 0 0 0 0 0 0 0 0 0 0 0 0 0 0 0 0 0 0 0 0 0 0 0 0 0
0 0 0 0 0 0 0 0 0 0 0 0 0 0 0 0 0 0 0 0 0 0 0 0 0 0 0 0 0 0 0 0 0 0 0 0 0 0 0 0 0 0 0 0
0 0 0 0 0 0 0 0 0 0 0 0 0 0 0 0 0 0 0 0 0 0 0 0 0 0 0 0 0 0 0 0 0 0 0 0 0 0 0 0 0 0 0 0
0 0 0 0 0 0 0 0 0 0 0 0 0 0 0 0 0 0 0 0 0 0 0 0 0 0 0 0 0 0 0 0 0 0 0 0 0 0 0 0 0 0 0 0
0 0 0 0 0 0 0 0 0 0 0 0 0 0 0 0 0 0 0 0 0 0 0 0 0 0 0 0 0 0 0 0 0 0 0 0 0 0 0 0 0 0 0 0
0 0 0 0 0 0 0 0 0 0 0 0 0 0 0 0 0 0 0 0 0 0 0 0 0 0 0 0 0 0 0 0 0 0 0 0 0 0 0 0 0 0 0 0
Wind_Speed
3 3 1 2 3 2 3 5 6 5 4 5 5 4 5 3 3 4 3 2 1 2 2 2 2 3 3 4 4 4 5 5 6 5 4 3 3 2 2 1 1 1 0 1
2 1 1 3 4 2 2 2 3 2 3 4 3 2 4 4 4 4 3 3 2 2 2 3 3 3 3 4 4 4 5 6 5 4 4 4 3 3 2 1 1 1 0 0
2 4 2 3 3 1 2 1 3 3 4 3 3 4 3 3 3 2 3 3 3 3 4 4 4 4 4 4 3 4 5 4 4 4 5 5 4 3 3 2 1 1 1 0
0 2 2 5 2 2 3 2 1 1 2 2 2 2 2 2 2 3 4 3 3 3 4 3 3 2 2 2 3 4 4 4 4 4 5 4 4 4 3 2 2 2 1 1
3 1 4 4 2 1 2 1 2 2 3 4 3 3 4 4 3 3 3 3 3 3 3 2 2 2 2 2 2 3 4 5 5 5 5 5 6 5 4 3 3 2 2 1
3 2 4 4 3 3 3 1 3 2 2 3 4 3 5 6 5 5 4 3 3 3 2 2 2 2 3 3 3 5 6 5 5 5 6 7 7 5 4 4 4 3 2 2
3 3 6 4 5 2 3 4 4 2 1 1 1 4 5 5 4 4 4 4 3 2 2 2 1 2 2 3 5 6 4 4 4 4 5 6 5 4 4 4 4 3 3 2
4 3 6 3 3 2 4 3 2 2 1 2 3 4 4 4 4 5 4 4 3 3 3 2 1 2 3 4 5 2 2 3 4 4 4 4 5 4 4 5 5 4 3 2
6 6 3 1 0 1 1 1 3 2 3 3 3 4 5 5 5 5 4 4 3 3 3 3 2 2 4 4 2 1 2 3 3 3 3 4 5 6 5 5 4 4 4 3
2 4 3 3 2 2 2 2 3 3 3 2 3 4 4 4 4 5 4 4 3 3 4 4 3 3 3 2 1 2 2 2 2 3 3 3 4 5 5 5 5 5 5 4
3 5 4 3 3 4 4 4 3 4 3 3 2 3 3 4 4 4 4 4 3 3 4 5 4 4 3 2 2 2 2 2 2 3 3 4 4 4 6 6 7 7 6 6
6 5 4 6 5 3 4 5 4 4 5 4 3 4 4 4 4 4 4 4 4 4 4 5 4 4 3 2 3 3 2 3 3 2 2 3 3 2 3 5 8 9 9 8
6 5 5 6 5 4 4 5 5 5 5 5 4 4 4 4 4 4 4 5 5 5 5 5 4 4 4 3 3 4 4 4 3 3 3 3 4 4 3 2 3 6 8 10
5 3 4 5 5 5 5 6 5 5 4 4 4 4 3 4 4 5 6 6 6 6 6 5 5 5 4 4 4 4 4 5 5 4 4 4 5 5 5 4 3 2 4 7
5 4 5 5 5 5 4 3 3 5 5 4 4 4 4 4 5 6 6 6 5 5 6 5 6 6 4 4 4 5 4 4 4 4 4 4 4 4 4 5 4 3 2 3
4 3 2 3 4 5 4 3 4 6 6 5 5 5 5 5 6 6 6 5 5 6 7 6 7 7 5 4 4 4 4 7 5 4 4 4 4 4 5 5 5 5 5 4
2 3 3 4 5 5 5 5 5 6 6 6 7 6 5 5 5 6 6 6 6 7 7 7 8 7 5 5 5 4 4 5 6 4 4 5 5 5 6 5 6 6 6 6
6 6 5 5 5 5 5 5 5 6 6 6 6 5 4 5 6 7 7 6 6 7 7 7 7 6 5 5 5 4 4 4 4 4 4 5 5 5 5 6 6 6 4 5
3 4 4 4 4 4 4 5 6 6 6 6 5 6 6 6 6 6 6 5 6 7 8 7 9 7 6 7 6 4 4 5 5 5 4 6 5 5 5 6 6 6 5 5
3 3 3 4 4 4 5 5 6 6 6 5 6 6 6 7 7 6 6 6 7 7 7 7 7 6 6 7 7 4 5 6 6 5 5 5 6 6 6 6 6 6 6 6
3 4 4 4 5 5 6 6 6 7 7 6 6 7 8 8 7 6 6 7 8 7 7 10 6 6 5 6 7 5 5 5 5 5 6 6 6 6 6 6 6 6 6 6
3 4 5 5 5 6 6 6 6 7 7 7 7 7 7 8 7 7 7 8 8 10 7 5 6 8 8 8 5 5 6 6 5 5 5 6 6 6 6 7 6 6 6 6
4 5 5 6 6 7 7 6 6 6 7 8 8 8 8 7 6 6 8 7 6 10 8 6 10 13 12 6 5 6 6 6 6 6 6 6 6 6 7 7 7 6 6 6
5 5 6 6 5 5 7 8 7 7 7 8 8 8 8 7 7 7 7 10 13 13 8 10 14 14 11 5 5 5 6 6 6 5 5 5 5 5 6 6 6 6 6 7
6 6 6 5 5 6 7 8 7 7 7 7 8 8 7 6 7 7 7 8 12 12 8 10 14 13 7 5 5 6 6 6 6 5 5 5 5 5 5 5 5 5 5 6
6 6 6 6 6 6 6 5 6 6 6 6 7 6 6 6 7 7 6 7 9 11 8 6 7 8 5 5 5 6 5 6 6 5 5 5 5 5 5 5 6 6 6 6
6 5 5 5 5 5 5 5 6 7 6 7 7 7 6 6 6 6 7 6 6 6 6 6 5 5 5 5 5 5 5 5 5 5 5 5 5 5 5 6 5 5 5 6
Wind_Direction
234 257 250 253 262 205 188 187 188 229 238 287 313 318 326 340 5 23 10 349 263 231 229 225 227 232 225 219 204 191 188 200 210 206 197 193 193 200 205 204 210 224 254 323
323 319 295 282 288 236 213 194 210 247 273 292 311 3 14 17 27 19 351 330 300 266 242 231 227 231 233 227 207 190 199 212 208 190 186 188 193 194 192 200 205 158 202 304
293 311 6 313 297 191 148 141 163 197 253 307 0 7 2 359 12 341 318 316 310 280 248 240 233 218 220 226 196 189 206 212 201 191 192 195 188 180 192 199 183 179 215 241
65 31 236 250 290 143 131 73 26 311 309 311 294 305 333 4 352 329 324 316 299 292 278 255 236 224 210 176 181 193 205 208 200 194 197 190 180 188 198 190 184 191 196 214
119 152 285 300 328 165 151 9 359 11 357 352 343 7 355 351 332 299 295 290 276 270 268 264 233 203 166 172 184 199 216 219 210 200 196 187 191 197 194 182 184 185 183 184
124 161 236 252 305 299 121 321 334 3 350 349 33 16 303 323 323 319 324 320 318 321 334 314 264 164 160 190 198 221 225 223 215 204 199 197 198 195 189 182 187 181 181 191
157 208 259 273 302 37 115 254 304 312 310 337 212 234 271 308 320 322 323 324 333 343 335 304 259 170 188 205 227 235 230 215 205 205 207 201 192 186 179 177 175 179 182 197
153 190 249 315 46 110 221 255 281 294 301 286 278 291 309 324 334 339 337 335 338 338 325 320 232 184 218 236 245 237 212 209 209 207 207 191 179 180 177 173 175 186 185 204
188 209 239 312 208 252 223 305 302 293 299 298 304 308 316 322 327 328 327 325 323 318 315 315 269 215 232 260 259 218 207 217 217 207 205 185 179 180 176 176 180 189 189 204
255 266 282 308 306 331 334 300 292 292 302 307 295 301 309 315 318 319 321 321 320 323 317 306 290 264 250 253 222 204 214 228 216 202 205 194 189 185 183 186 189 193 195 204
271 285 313 303 298 311 318 318 314 312 300 282 280 294 296 303 306 309 311 311 311 303 294 294 295 284 271 230 192 209 222 220 218 210 203 199 199 201 200 204 195 193 201 195
235 239 230 262 278 291 296 301 301 306 306 299 274 276 288 291 291 298 303 304 303 297 294 298 300 291 278 240 205 199 219 225 217 211 209 201 195 220 235 225 219 212 206 198
239 250 241 265 284 285 279 287 292 287 275 280 279 269 274 280 281 285 293 296 290 284 283 287 287 285 275 245 223 215 219 224 222 210 204 207 200 196 215 254 226 218 210 206
257 261 277 277 277 283 283 286 289 287 276 269 273 281 281 284 289 284 281 279 282 285 285 280 274 273 268 243 230 231 226 224 224 216 208 209 210 208 202 199 210 235 221 210
268 247 248 269 284 291 291 297 303 293 286 283 282 283 282 282 282 282 285 288 290 291 288 283 276 276 273 246 233 231 225 223 223 220 215 213 212 209 208 206 206 209 209 210
275 289 284 285 288 295 302 301 292 285 283 279 278 275 274 275 281 287 290 292 287 283 282 279 274 274 269 250 238 233 229 237 232 216 212 212 210 208 209 207 206 204 204 199
242 276 287 291 286 285 282 275 271 276 280 278 274 275 278 284 291 290 288 283 274 273 273 270 272 276 266 250 238 232 228 231 230 225 215 215 214 214 212 208 209 212 214 202
221 230 238 244 255 272 284 285 283 282 278 278 285 285 280 277 277 279 283 288 290 289 282 274 274 273 262 255 242 232 223 220 219 221 220 220 221 218 214 212 211 212 214 205
243 248 258 262 261 262 271 277 280 282 285 286 283 275 270 270 272 278 284 287 288 287 287 282 284 276 263 257 259 233 225 224 224 225 224 228 227 220 214 213 213 211 202 196
271 270 275 281 281 275 276 280 282 283 282 279 278 277 278 278 279 279 275 268 260 261 271 280 278 267 259 255 255 235 229 228 225 224 223 223 223 222 216 213 210 208 204 202
282 287 289 290 289 284 276 276 279 280 281 277 270 268 271 277 279 276 275 277 276 272 275 280 275 265 257 259 253 234 229 229 227 225 224 224 225 221 216 211 209 208 206 202
278 284 286 287 287 287 285 278 273 275 279 278 274 272 275 279 280 278 267 262 271 280 279 266 264 268 270 266 239 231 230 229 228 227 225 225 223 217 214 212 209 208 207 201
267 270 276 279 278 281 287 282 276 275 274 273 273 273 271 269 265 265 275 272 271 280 279 263 269 274 273 256 233 229 230 231 228 226 224 226 226 219 214 212 209 204 200 195
270 272 272 276 279 281 283 281 279 275 271 271 269 266 266 272 273 260 257 275 283 285 276 269 272 273 270 246 232 230 231 232 232 231 228 228 227 221 214 209 206 200 195 188
268 271 275 279 278 273 273 279 285 283 279 275 274 271 264 253 256 269 272 273 279 285 281 278 278 277 265 244 235 233 233 234 235 231 224 226 225 220 214 207 202 195 189 186
265 267 266 261 260 265 269 272 274 276 277 278 279 275 272 268 265 268 271 271 272 278 278 273 268 266 253 245 240 238 236 240 241 236 229 228 224 218 211 205 199 192 186 183
271 271 272 276 272 261 259 260 264 269 268 266 273 277 276 275 274 274 274 274 273 271 270 268 262 253 247 245 245 244 240 237 234 231 228 227 220 214 208 202 195 186 178 173